This is the latest recevied weather packets stored in our database for station/object KK4KTV-13. If no packets are shown the sender has not sent any weather packets the latest 10 day(s).
| Time | Temp. | Humidity | Pressure | Rain* | Wind** | Luminosity | Snow |
|---|---|---|---|---|---|---|---|
| 1777770276 | 10° C | 69% | 1016.7 hPa | 0 mm | - | 0 W/m² | - |
| 1777769973 | 10° C | 68% | 1016.6 hPa | 0 mm | - | 0 W/m² | - |
| 1777769670 | 10° C | 67% | 1016.4 hPa | 0 mm | - | 0 W/m² | - |
| 1777769367 | 10° C | 67% | 1016.5 hPa | 0 mm | - | 0 W/m² | - |
| 1777769064 | 10° C | 66% | 1016.4 hPa | 0 mm | - | 0 W/m² | - |
| 1777768762 | 10° C | 66% | 1016.4 hPa | 0 mm | - | 1 W/m² | - |
| 1777768458 | 10.56° C | 66% | 1016.3 hPa | 0 mm | - | 2 W/m² | - |
| 1777768155 | 10.56° C | 66% | 1016.3 hPa | 0 mm | - | 3 W/m² | - |
| 1777767852 | 10.56° C | 66% | 1016.3 hPa | 0 mm | - | 5 W/m² | - |
| 1777767549 | 10.56° C | 65% | 1016.3 hPa | 0 mm | - | 7 W/m² | - |
| 1777767244 | 10.56° C | 65% | 1016.1 hPa | 0 mm | - | 11 W/m² | - |
| 1777766943 | 11.11° C | 64% | 1015.9 hPa | 0 mm | - | 15 W/m² | - |
| 1777766640 | 11.11° C | 63% | 1016 hPa | 0 mm | - | 19 W/m² | - |
| 1777766337 | 11.11° C | 62% | 1016 hPa | 0 mm | - | 23 W/m² | - |
| 1777766034 | 11.67° C | 61% | 1016 hPa | 0 mm | - | 29 W/m² | - |
| 1777765731 | 11.67° C | 60% | 1016 hPa | 0 mm | - | 34 W/m² | - |
| 1777765428 | 12.22° C | 58% | 1015.7 hPa | 0 mm | - | 47 W/m² | - |
| 1777765124 | 12.22° C | 56% | 1015.5 hPa | 0 mm | - | 61 W/m² | - |
| 1777764820 | 12.22° C | 55% | 1015.8 hPa | 0 mm | - | 49 W/m² | - |
| 1777764518 | 12.22° C | 55% | 1015.7 hPa | 0 mm | - | 45 W/m² | - |
| 1777764214 | 12.78° C | 53% | 1015.7 hPa | 0 mm | - | 48 W/m² | - |
| 1777763910 | 12.78° C | 53% | 1015.7 hPa | 0 mm | - | 60 W/m² | - |
| 1777763608 | 13.33° C | 51% | 1015.5 hPa | 0 mm | - | 61 W/m² | - |
| 1777763306 | 13.33° C | 51% | 1015.6 hPa | 0 mm | - | 107 W/m² | - |
| 1777763004 | 13.33° C | 50% | 1015.5 hPa | 0 mm | - | 117 W/m² | - |
* Rain latest hour (hover to see other rain measurements)
** Current wind speed in m/s (hover to see current wind gust speed)